Regional Weather Roundup
Issued by NWS

Home | Current Version | Previous Version | Graphics & Text | Print | Product List | Glossary On
Versions: 1 2 3 4 5 6 7 8 9 10 11 12 13 14 15 16 17 18 19 20 21 22 23 24 25 26 27 28
000
ASUS45 KCYS 171810
RWRWY

WYOMING REGIONAL WEATHER ROUNDUP
NATIONAL WEATHER SERVICE CHEYENNE WY
1100 AM MST FRI NOV 17 2017

NOTE:  "FAIR" INDICATES FEW OR NO CLOUDS BELOW 12,000 FEET
WITH NO SIGNIFICANT WEATHER AND/OR OBSTRUCTIONS TO VISIBILITY.

WYZ001-171900-
YELLOWSTONE NATIONAL PARK

CITY           SKY/WX    TMP DP  RH WIND       PRES   REMARKS
LK YELLOWSTONE   N/A     24  19  81 W9        29.71R WCI  14
6HR MIN TEMP:  22; 6HR MAX TEMP:  27; 6HR PCP:  0.23;

W YELLOWSTONE  NOT AVBL

$$
WYZ002>013-054>058-071-098>099-171900-
NORTHERN WYOMING

CITY           SKY/WX    TMP DP  RH WIND       PRES   REMARKS
JACKSON        LGT SNOW  32  28  85 SW9       29.71S FOG     WCI  24
CODY           PTSUNNY   36  31  82 SW13      29.67S WCI  27
GREYBULL       CLOUDY    40  34  79 W9        29.66R WCI  34
6HR MIN TEMP:  33; 6HR MAX TEMP:  40; 6HR PCP: TRACE;

WORLAND        CLOUDY    37  33  85 N12       29.66R WCI  29
6HR MIN TEMP:  30; 6HR MAX TEMP:  39;

SHERIDAN       CLOUDY    34  33  96 S14       29.65F WCI  25
6HR MIN TEMP:  33; 6HR MAX TEMP:  35; 6HR PCP:  0.09;

BUFFALO        SNOW      33  29  85 NW8       29.67S VSB 1/4 WCI  26
6HR MIN TEMP:  32; 6HR MAX TEMP:  33; 6HR PCP:  0.18;

GILLETTE       CLOUDY    37  33  85 NW3       29.66R
6HR MIN TEMP:  32; 6HR MAX TEMP:  37; 6HR PCP:  0.03;

HULETT         CLOUDY    34  34 100 NW5       29.66S FOG     WCI  30
NEWCASTLE      CLOUDY    37  32  81 SE8       29.65S WCI  31

$$
WYZ014>020-022>026-101>103-171900-
CENTRAL WYOMING

CITY           SKY/WX    TMP DP  RH WIND       PRES   REMARKS
BIG PINEY      LGT SNOW  33  30  88 NE8       29.75R FOG     WCI  26
6HR MIN TEMP:  30; 6HR MAX TEMP:  34; 6HR PCP:  0.02;

PINEDALE       MOCLDY    32  28  86 W7        29.74S WCI  26
DUBOIS         FAIR      32  23  69 W10       29.63R WCI  24
LANDER         PTSUNNY   47  21  35 VRB3      29.63R
6HR MIN TEMP:  36; 6HR MAX TEMP:  48;

RIVERTON       FAIR      45  29  53 SW5       29.63R
6HR MIN TEMP:  34; 6HR MAX TEMP:  45;

CASPER         CLOUDY    43  35  73 SW17G30   29.64F
6HR MIN TEMP:  33; 6HR MAX TEMP:  44; 6HR PCP:  0.01;

DOUGLAS        CLOUDY    43  37  79 SE12      29.65R
6HR MIN TEMP:  41; 6HR MAX TEMP:  46; 6HR PCP:  0.02;


$$
WYZ021-027>030-104>119-171900-
SOUTHERN WYOMING

CITY           SKY/WX    TMP DP  RH WIND       PRES   REMARKS
EVANSTON       SNOW      31  31 100 SW12      29.78S VSB 1/4 WCI  22
6HR MIN TEMP:  31; 6HR MAX TEMP:  33; 6HR PCP:  0.35;

FORT BRIDGER   SNOW      32  32 100 SW15G23   29.80F VSB 1/4 WCI  22
ROCK SPRINGS   LGT SNOW  32  31  96 SW16      29.76F FOG     WCI  21
6HR MIN TEMP:  31; 6HR MAX TEMP:  35; 6HR PCP:  0.15;

DIXON          CLOUDY    33  32  94 W7        29.81R VSB 1/2 WCI  27
RAWLINS        LGT SNOW  34  32  92 W13       29.74S WCI  25
6HR MIN TEMP:  33; 6HR MAX TEMP:  39; 6HR PCP:  0.22;

SARATOGA       CLOUDY    32  32 100 N6        29.75F VSB 3/4 WCI  26
LARAMIE        LGT RAIN  35  35 100 N16       29.69F WCI  25
6HR MIN TEMP:  34; 6HR MAX TEMP:  47; 6HR PCP:  0.05;

CHEYENNE       FAIR      52  36  54 SE13      29.64F
6HR MIN TEMP:  44; 6HR MAX TEMP:  54;

TORRINGTON     CLOUDY    43  31  62 E9        29.63F
6HR MIN TEMP:  39; 6HR MAX TEMP:  44; 6HR PCP: TRACE;

PINE BLUFFS    FAIR      46  32  57 NE5       29.66F

$$




USA.gov is the U.S. government's official web portal to all federal, state and local government web resources and services.